Location: Central Coast NSW, Australia
(33.2407°S, 151.4316°E)
Time: 17:02:07
(UTC+11:00)

ISS - Pass Details

Date: 26 January 2019
Orbit: 403 x 411 km, 51.6° (Epoch: 21 February)

Event Time Altitude Azimuth Distance (km) Brightness Sun altitude
Exits shadow 05:07:15 10° 355° (N) 1,507 -1.3 -12.5°
Reaches altitude 10° 05:07:21 10° 356° (N) 1,475 -1.3 -12.5°
Maximum altitude 05:10:03 23° 51° (NE) 920 -1.8 -12.0°
Drops below altitude 10° 05:12:47 10° 106° (ESE) 1,487 0.4 -11.5°
Sets 05:15:08 0° 120° (ESE) 2,354 2.3 -11.1°
